QPF
0.00 0.00 0.00 0.00 0.00 0.00 0.00 0.00 0.00 0.00 0.00 0.00 0.00 0.00 0.00 0.00 0.00 0.00 0.00 0.00 0.00 0.00 0.00 0.00 0.00 0.00 0.00 0.00 0.00 0.00 0.00 0.00 0.00 0.00 0.00 0.00 0.00 0.00 0.00 0.00 0.00 0.00 0.00 0.00
0.00 0.00 0.00 0.00 0.00 0.00 0.00 0.00 0.00 0.00 0.00 0.00 0.00 0.00 0.00 0.00 0.00 0.00 0.00 0.00 0.00 0.00 0.00 0.00 0.00 0.00 0.00 0.00 0.00 0.00 0.00 0.00 0.00 0.00 0.00 0.00 0.00 0.00 0.00 0.00 0.00 0.00 0.00 0.00
0.00 0.00 0.00 0.00 0.00 0.00 0.00 0.00 0.00 0.00 0.00 0.00 0.00 0.00 0.00 0.00 0.00 0.00 0.00 0.00 0.00 0.00 0.00 0.00 0.00 0.00 0.00 0.00 0.00 0.00 0.00 0.00 0.00 0.00 0.00 0.00 0.00 0.00 0.00 0.00 0.00 0.00 0.00 0.01
0.00 0.00 0.00 0.00 0.00 0.00 0.00 0.00 0.00 0.00 0.00 0.00 0.00 0.00 0.00 0.00 0.00 0.00 0.00 0.00 0.00 0.00 0.00 0.00 0.00 0.00 0.00 0.00 0.00 0.00 0.00 0.00 0.00 0.00 0.00 0.00 0.00 0.00 0.00 0.00 0.00 0.07 0.04 0.00
0.00 0.00 0.00 0.00 0.00 0.00 0.00 0.00 0.00 0.00 0.00 0.00 0.00 0.00 0.00 0.00 0.00 0.00 0.00 0.00 0.00 0.00 0.00 0.00 0.00 0.00 0.00 0.00 0.00 0.00 0.00 0.00 0.00 0.00 0.00 0.00 0.00 0.00 0.00 0.00 0.03 0.08 0.02 0.00
0.00 0.00 0.00 0.00 0.00 0.00 0.00 0.00 0.00 0.00 0.00 0.00 0.00 0.00 0.00 0.00 0.00 0.00 0.00 0.00 0.00 0.00 0.00 0.00 0.00 0.00 0.00 0.00 0.00 0.00 0.00 0.00 0.00 0.00 0.00 0.00 0.00 0.00 0.00 0.00 0.04 0.02 0.00 0.00
0.01 0.00 0.00 0.00 0.00 0.00 0.00 0.00 0.00 0.00 0.00 0.00 0.00 0.00 0.00 0.00 0.00 0.00 0.00 0.00 0.00 0.00 0.00 0.00 0.00 0.00 0.00 0.00 0.00 0.00 0.00 0.00 0.00 0.00 0.00 0.00 0.00 0.00 0.00 0.00 0.00 0.00 0.00 0.00
0.01 0.00 0.00 0.00 0.00 0.00 0.00 0.00 0.00 0.00 0.00 0.00 0.00 0.00 0.00 0.00 0.00 0.00 0.00 0.00 0.00 0.00 0.00 0.00 0.00 0.00 0.00 0.00 0.00 0.00 0.00 0.00 0.00 0.00 0.00 0.00 0.00 0.00 0.00 0.00 0.00 0.00 0.00 0.00
0.01 0.00 0.02 0.01 0.00 0.00 0.00 0.00 0.00 0.00 0.00 0.00 0.00 0.00 0.00 0.00 0.00 0.00 0.00 0.00 0.00 0.00 0.00 0.00 0.00 0.00 0.00 0.00 0.00 0.00 0.00 0.00 0.00 0.00 0.00 0.00 0.00 0.00 0.00 0.00 0.00 0.00 0.00 0.00
0.00 0.00 0.00 0.00 0.00 0.00 0.00 0.00 0.00 0.00 0.00 0.00 0.00 0.00 0.00 0.00 0.00 0.00 0.00 0.00 0.00 0.00 0.00 0.00 0.00 0.00 0.00 0.00 0.00 0.00 0.00 0.00 0.00 0.00 0.00 0.00 0.00 0.00 0.00 0.00 0.00 0.00 0.00 0.00
0.00 0.00 0.00 0.00 0.00 0.00 0.00 0.00 0.00 0.00 0.00 0.00 0.00 0.00 0.00 0.00 0.00 0.00 0.00 0.00 0.00 0.00 0.00 0.00 0.00 0.00 0.00 0.00 0.00 0.00 0.00 0.00 0.00 0.00 0.00 0.00 0.00 0.00 0.00 0.00 0.00 0.00 0.00 0.00
0.01 0.00 0.00 0.00 0.00 0.00 0.00 0.00 0.00 0.00 0.00 0.00 0.00 0.00 0.00 0.00 0.00 0.00 0.00 0.00 0.00 0.00 0.00 0.00 0.00 0.00 0.00 0.00 0.00 0.00 0.00 0.00 0.00 0.00 0.00 0.00 0.00 0.00 0.00 0.00 0.00 0.00 0.00 0.00
0.01 0.00 0.00 0.00 0.00 0.00 0.00 0.00 0.00 0.00 0.00 0.00 0.00 0.00 0.00 0.00 0.00 0.00 0.00 0.00 0.00 0.00 0.00 0.00 0.00 0.00 0.00 0.00 0.00 0.00 0.00 0.00 0.00 0.00 0.00 0.00 0.00 0.00 0.00 0.00 0.00 0.00 0.00 0.00
0.05 0.00 0.00 0.00 0.00 0.00 0.00 0.00 0.00 0.00 0.00 0.00 0.00 0.00 0.00 0.00 0.00 0.00 0.00 0.00 0.00 0.00 0.00 0.00 0.00 0.00 0.00 0.00 0.00 0.00 0.00 0.00 0.00 0.00 0.00 0.00 0.00 0.00 0.00 0.00 0.00 0.00 0.00 0.00
0.01 0.01 0.00 0.00 0.00 0.00 0.00 0.00 0.00 0.00 0.00 0.00 0.00 0.00 0.00 0.00 0.00 0.00 0.00 0.00 0.00 0.00 0.00 0.00 0.00 0.00 0.00 0.00 0.00 0.00 0.00 0.00 0.00 0.00 0.00 0.00 0.00 0.00 0.00 0.00 0.00 0.00 0.00 0.00
0.01 0.01 0.00 0.00 0.00 0.00 0.00 0.00 0.00 0.00 0.00 0.00 0.00 0.00 0.00 0.00 0.00 0.00 0.00 0.00 0.00 0.00 0.00 0.00 0.00 0.00 0.00 0.00 0.00 0.00 0.00 0.00 0.00 0.00 0.00 0.00 0.00 0.00 0.00 0.00 0.00 0.00 0.00 0.00
0.00 0.00 0.01 0.00 0.00 0.00 0.00 0.00 0.00 0.00 0.00 0.00 0.00 0.00 0.00 0.00 0.00 0.00 0.00 0.00 0.00 0.00 0.00 0.00 0.00 0.00 0.00 0.00 0.00 0.00 0.00 0.00 0.00 0.00 0.00 0.00 0.00 0.00 0.00 0.00 0.00 0.00 0.00 0.00
0.00 0.00 0.01 0.00 0.00 0.00 0.02 0.04 0.01 0.00 0.00 0.00 0.00 0.00 0.00 0.00 0.00 0.00 0.00 0.00 0.00 0.00 0.00 0.00 0.00 0.00 0.00 0.00 0.00 0.00 0.00 0.00 0.00 0.00 0.00 0.00 0.00 0.00 0.00 0.00 0.00 0.00 0.00 0.00
0.00 0.00 0.00 0.00 0.00 0.00 0.03 0.03 0.01 0.00 0.00 0.02 0.01 0.00 0.00 0.00 0.00 0.00 0.00 0.00 0.00 0.00 0.00 0.00 0.00 0.00 0.00 0.00 0.00 0.00 0.00 0.00 0.00 0.00 0.00 0.00 0.00 0.00 0.00 0.00 0.00 0.00 0.00 0.00
0.00 0.00 0.00 0.00 0.00 0.00 0.02 0.01 0.00 0.00 0.01 0.04 0.01 0.00 0.00 0.00 0.00 0.00 0.00 0.00 0.00 0.00 0.00 0.00 0.00 0.00 0.00 0.00 0.00 0.00 0.00 0.00 0.00 0.00 0.00 0.00 0.00 0.00 0.00 0.00 0.00 0.00 0.00 0.00
0.00 0.00 0.00 0.00 0.00 0.00 0.00 0.01 0.01 0.02 0.01 0.02 0.01 0.01 0.00 0.00 0.00 0.00 0.00 0.00 0.00 0.01 0.00 0.00 0.00 0.00 0.00 0.00 0.00 0.00 0.00 0.00 0.00 0.00 0.00 0.00 0.00 0.00 0.00 0.00 0.00 0.00 0.00 0.00
0.00 0.00 0.00 0.00 0.00 0.00 0.00 0.00 0.01 0.01 0.02 0.02 0.01 0.02 0.00 0.00 0.00 0.00 0.00 0.02 0.02 0.01 0.00 0.00 0.00 0.00 0.00 0.00 0.00 0.00 0.00 0.00 0.00 0.00 0.00 0.00 0.00 0.00 0.00 0.00 0.00 0.00 0.00 0.00
0.00 0.00 0.00 0.00 0.00 0.00 0.00 0.00 0.00 0.01 0.01 0.00 0.02 0.03 0.01 0.00 0.00 0.00 0.01 0.01 0.04 0.01 0.00 0.00 0.00 0.00 0.00 0.00 0.00 0.00 0.00 0.00 0.00 0.00 0.00 0.00 0.00 0.00 0.00 0.00 0.00 0.00 0.00 0.00
0.00 0.00 0.00 0.00 0.00 0.01 0.01 0.01 0.02 0.01 0.00 0.01 0.04 0.03 0.02 0.00 0.00 0.00 0.01 0.02 0.02 0.01 0.01 0.01 0.00 0.00 0.00 0.00 0.00 0.00 0.00 0.00 0.00 0.00 0.00 0.00 0.00 0.00 0.00 0.00 0.00 0.00 0.00 0.00
0.00 0.00 0.00 0.00 0.00 0.00 0.01 0.01 0.01 0.00 0.00 0.01 0.04 0.05 0.04 0.00 0.00 0.00 0.02 0.02 0.01 0.02 0.02 0.04 0.00 0.00 0.00 0.00 0.00 0.00 0.00 0.00 0.00 0.00 0.00 0.00 0.00 0.00 0.00 0.00 0.00 0.00 0.00 0.00
0.00 0.00 0.00 0.00 0.00 0.01 0.00 0.01 0.02 0.00 0.00 0.00 0.01 0.01 0.04 0.01 0.00 0.00 0.00 0.01 0.02 0.02 0.02 0.01 0.01 0.00 0.00 0.00 0.00 0.00 0.00 0.00 0.00 0.00 0.00 0.00 0.00 0.00 0.00 0.00 0.00 0.00 0.00 0.00
MSLP
1009.78 1009.61 1008.39 1008.15 1008.12 1007.92 1007.65 1007.31 1006.90 1006.27 1005.61 1005.32 1004.62 1003.32 1003.03 1002.84 1002.25 1001.94 1001.24 1000.87 1000.36 1000.07 999.81 999.57 999.49 999.33 999.08 999.00 999.22 999.07 999.16 999.14 999.92 1000.67 1001.55 1002.26 1002.49 1003.00 1003.49 1004.13 1004.59 1004.98 1005.39 1005.77
1010.33 1009.36 1008.98 1008.51 1008.09 1007.99 1007.79 1007.85 1007.39 1006.97 1006.20 1005.94 1005.31 1003.98 1003.63 1003.12 1002.27 1001.42 1000.90 1000.36 1000.27 1000.02 999.69 999.34 999.07 998.80 998.81 998.87 998.53 998.49 998.65 998.96 999.35 999.65 1000.54 1001.11 1001.81 1002.80 1003.24 1003.91 1004.24 1004.58 1005.18 1005.62
1010.09 1009.25 1008.75 1008.46 1008.02 1007.84 1007.72 1007.60 1007.56 1007.48 1006.72 1005.99 1005.85 1003.91 1003.01 1001.81 1001.21 1000.59 1000.09 999.87 999.61 999.41 999.23 998.83 998.64 998.41 998.13 998.27 998.11 998.01 998.09 998.53 998.86 999.64 1000.23 1001.16 1001.79 1002.73 1003.48 1003.82 1004.12 1004.50 1004.97 1005.59
1009.26 1008.57 1008.30 1008.03 1007.71 1007.70 1007.54 1007.43 1007.50 1007.54 1007.53 1006.97 1006.23 1003.96 1002.54 1001.53 1000.18 1000.10 999.77 999.30 998.83 998.80 998.50 998.18 998.19 997.99 997.52 997.18 997.30 997.38 997.77 997.95 998.55 999.41 999.79 1000.55 1001.01 1002.17 1002.57 1002.98 1003.81 1004.45 1004.87 1005.42
1008.44 1007.94 1007.67 1007.47 1007.12 1007.02 1006.98 1007.33 1007.81 1008.13 1008.09 1007.76 1006.88 1006.42 1000.40 1000.51 999.63 999.34 998.95 998.48 998.11 997.59 997.67 997.61 997.46 997.19 996.83 997.05 997.21 997.50 997.84 997.91 998.39 999.19 999.66 1000.35 1001.06 1001.66 1002.33 1003.08 1004.08 1004.64 1005.14 1005.40
1007.98 1007.56 1007.19 1006.76 1006.61 1006.60 1006.78 1007.29 1007.93 1008.40 1008.80 1008.23 1006.81 1006.79 1000.38 1000.37 998.91 998.86 998.08 997.79 997.43 997.48 997.32 996.95 996.63 996.72 996.68 996.88 997.24 997.61 998.01 998.16 998.57 999.11 999.61 1000.07 1000.90 1001.82 1002.57 1003.39 1004.67 1004.86 1005.40 1005.79
1007.82 1006.77 1006.19 1006.36 1006.64 1006.64 1006.97 1007.64 1008.68 1009.51 1009.21 1007.46 1005.80 1006.01 1000.15 998.67 998.45 998.35 997.92 997.53 997.26 997.03 996.89 996.51 996.44 996.65 996.87 997.27 997.47 997.77 998.09 998.53 998.97 999.10 999.94 1000.35 1001.12 1001.74 1002.47 1003.30 1004.28 1005.01 1005.52 1005.82
1007.92 1006.75 1006.23 1005.81 1006.19 1006.42 1006.82 1007.56 1007.91 1008.12 1007.94 1007.11 1006.30 1003.74 999.77 998.64 997.79 997.16 997.54 997.46 997.00 996.48 996.17 996.11 996.13 996.50 996.95 997.28 997.42 997.70 998.25 998.77 999.20 999.78 1000.37 1000.87 1001.49 1002.10 1002.78 1003.39 1004.13 1004.75 1005.16 1005.50
1008.86 1007.69 1006.90 1006.10 1005.86 1006.02 1006.48 1007.01 1006.94 1007.80 1007.38 1006.63 1004.79 1001.83 999.99 998.54 997.81 997.64 997.71 997.31 996.86 996.18 996.00 996.16 996.39 996.65 997.02 997.31 997.59 997.94 998.47 999.04 999.76 1000.34 1000.69 1001.34 1001.95 1002.47 1003.12 1003.81 1004.34 1004.82 1005.12 1005.52
1009.69 1008.64 1007.20 1006.82 1006.64 1006.01 1005.91 1006.18 1007.13 1007.71 1007.43 1006.34 1003.83 1002.09 1000.22 998.84 998.19 997.97 997.62 997.25 996.48 995.98 996.20 996.56 996.70 996.82 997.21 997.54 997.87 998.28 998.73 999.56 1000.16 1000.59 1000.97 1001.63 1002.14 1002.69 1003.39 1004.06 1004.64 1004.91 1005.20 1005.53
1009.93 1009.72 1007.92 1007.24 1006.67 1006.27 1006.17 1006.32 1006.69 1006.96 1006.76 1005.72 1004.19 1001.53 999.26 998.45 998.48 998.23 997.82 997.15 996.75 995.84 996.17 996.46 996.77 996.96 997.47 997.87 998.31 998.79 999.23 999.93 1000.59 1000.97 1001.47 1002.05 1002.69 1003.18 1003.74 1004.23 1004.66 1004.95 1005.33 1005.72
1010.33 1010.18 1009.51 1008.19 1007.00 1006.93 1006.96 1006.86 1007.09 1007.19 1006.73 1005.64 1004.82 1002.25 998.87 998.67 998.41 998.02 997.66 997.41 996.97 996.53 996.48 996.55 996.87 997.30 997.86 998.42 998.84 999.27 999.90 1000.33 1000.87 1001.41 1001.90 1002.50 1003.04 1003.55 1003.99 1004.43 1004.78 1005.06 1005.41 1005.75
1010.70 1010.78 1010.44 1008.94 1008.15 1007.45 1007.51 1007.48 1007.40 1007.26 1007.01 1005.88 1004.77 1001.22 999.05 998.20 998.09 998.12 997.95 997.88 997.67 997.31 997.15 997.12 997.12 997.66 998.19 998.73 999.17 999.75 1000.20 1000.76 1001.24 1001.73 1002.21 1002.93 1003.39 1003.84 1004.26 1004.65 1004.95 1005.17 1005.49 1005.84
1010.98 1011.08 1010.89 1010.39 1009.22 1008.75 1008.36 1007.80 1007.66 1007.51 1006.94 1005.49 1003.46 1002.77 1000.46 999.21 999.35 998.66 997.91 997.68 997.52 997.48 997.54 997.65 997.49 998.05 998.45 999.02 999.55 1000.09 1000.61 1001.01 1001.53 1001.98 1002.56 1003.10 1003.61 1004.04 1004.37 1004.67 1005.01 1005.27 1005.54 1005.88
1010.81 1010.84 1010.79 1010.28 1009.74 1009.10 1008.42 1007.75 1007.17 1007.12 1006.36 1005.56 1004.04 1003.08 1001.65 1000.47 1000.01 999.09 998.18 997.61 997.52 997.52 997.65 997.88 998.13 998.21 998.71 999.31 999.86 1000.35 1000.79 1001.26 1001.69 1002.25 1002.79 1003.26 1003.76 1004.16 1004.47 1004.80 1005.03 1005.30 1005.60 1005.77
1010.81 1010.65 1010.39 1009.87 1009.28 1008.38 1007.62 1006.78 1006.32 1005.71 1005.13 1004.47 1004.03 1002.89 1001.82 1000.47 999.76 998.93 998.00 997.46 997.27 997.30 997.35 997.81 998.21 998.61 998.80 999.31 999.98 1000.47 1000.97 1001.43 1001.80 1002.37 1002.90 1003.34 1003.81 1004.22 1004.55 1004.86 1005.05 1005.26 1005.45 1005.84
1010.76 1010.65 1010.44 1009.40 1008.58 1007.75 1006.53 1005.02 1004.40 1003.68 1003.41 1003.30 1002.91 1002.52 1000.96 1000.39 999.43 998.64 997.62 997.11 996.76 996.84 997.04 997.42 998.03 998.64 998.89 999.15 999.74 1000.27 1000.97 1001.43 1001.92 1002.38 1002.93 1003.44 1003.93 1004.33 1004.68 1004.98 1005.16 1005.35 1005.68 1005.94
1009.68 1010.11 1010.29 1009.30 1008.58 1007.16 1004.08 1003.63 1003.12 1002.07 1001.86 1002.25 1002.15 1001.53 1000.67 1000.21 999.30 998.10 997.49 996.95 996.27 996.44 996.75 997.12 997.82 998.55 999.42 999.39 999.76 1000.31 1000.95 1001.49 1001.97 1002.48 1002.88 1003.42 1003.89 1004.32 1004.74 1005.06 1005.35 1005.59 1005.91 1006.12
1009.11 1009.37 1009.50 1009.07 1008.00 1005.75 1004.05 1003.59 1003.58 1002.76 1001.82 1001.26 1001.56 1001.22 1000.68 1000.08 999.45 997.58 997.05 996.46 995.95 995.83 996.22 996.85 997.22 998.15 999.27 999.84 999.90 1000.34 1001.06 1001.57 1002.04 1002.40 1002.76 1003.28 1003.86 1004.36 1004.80 1005.21 1005.59 1005.86 1006.13 1006.65
1008.46 1008.42 1008.74 1008.38 1007.83 1006.08 1004.59 1004.49 1004.26 1003.46 1002.15 1001.61 1001.51 1001.12 1000.68 1000.57 999.22 997.26 996.56 996.31 996.04 995.44 995.70 996.36 997.24 998.12 998.99 999.88 1000.09 1000.51 1001.08 1001.61 1002.01 1002.30 1002.64 1003.18 1003.77 1004.25 1004.75 1005.22 1005.68 1005.91 1006.31 1006.80
1008.01 1008.20 1008.04 1007.63 1007.15 1005.89 1005.17 1004.92 1004.25 1003.69 1002.88 1001.69 1001.33 1000.92 1000.46 999.88 998.32 997.24 996.60 996.27 995.85 995.49 995.64 996.12 996.90 997.87 998.78 999.62 1000.11 1000.64 1001.05 1001.46 1001.73 1002.18 1002.58 1003.23 1003.73 1004.23 1004.66 1005.23 1005.77 1005.99 1006.41 1006.94
1008.29 1007.99 1007.38 1007.03 1006.85 1006.28 1005.94 1005.01 1004.35 1003.46 1002.47 1001.52 1000.92 1000.29 999.79 999.05 997.78 996.96 996.59 996.25 995.79 995.45 995.68 995.90 996.84 997.72 998.63 999.38 999.99 1000.51 1000.89 1001.05 1001.70 1002.10 1002.68 1003.28 1003.81 1004.39 1004.83 1005.32 1005.90 1006.19 1006.48 1007.07
1008.28 1008.23 1007.74 1007.43 1006.64 1006.08 1006.15 1005.63 1004.58 1003.28 1002.46 1001.22 1000.40 999.69 999.11 997.94 997.08 996.76 996.69 996.08 995.51 995.28 995.37 995.67 996.44 997.48 998.38 999.14 999.65 1000.22 1000.48 1001.05 1001.65 1002.17 1002.79 1003.38 1003.95 1004.44 1004.86 1005.39 1006.01 1006.38 1006.68 1007.18
1008.12 1007.57 1007.20 1006.89 1006.35 1005.43 1005.12 1004.60 1003.85 1002.64 1001.61 1000.56 999.70 998.91 998.14 997.69 997.18 996.57 996.47 996.06 996.00 995.48 995.47 995.98 996.44 997.42 998.19 998.77 999.32 999.60 1000.29 1000.90 1001.47 1002.22 1002.93 1003.47 1003.98 1004.50 1005.02 1005.50 1006.00 1006.40 1006.78 1007.12
1008.30 1007.69 1007.01 1006.39 1005.64 1004.77 1004.30 1003.84 1003.09 1001.76 1000.67 1000.03 999.05 998.61 998.03 997.51 996.63 996.32 996.04 996.36 995.99 995.50 995.89 996.17 996.09 996.92 997.72 998.34 998.93 999.51 1000.09 1000.72 1001.45 1002.19 1002.89 1003.51 1004.01 1004.45 1005.13 1005.74 1006.36 1006.44 1006.67 1006.87
1008.06 1007.55 1006.82 1006.31 1005.74 1005.42 1004.39 1003.56 1002.74 1001.94 1001.10 1000.74 1000.11 999.20 998.45 997.85 996.83 996.53 996.54 995.96 994.66 996.47 996.06 996.23 996.49 997.02 997.68 998.30 998.77 999.43 1000.05 1000.54 1001.39 1002.33 1002.97 1003.42 1003.96 1004.50 1005.03 1005.78 1006.56 1006.71 1006.64 1006.79
Thickness
5569 5565 5591 5610 5609 5616 5616 5616 5621 5637 5652 5658 5665 5679 5696 5704 5713 5718 5734 5743 5751 5758 5770 5776 5778 5780 5784 5785 5784 5785 5785 5785 5777 5769 5761 5754 5751 5745 5740 5734 5729 5725 5719 5714
5535 5547 5575 5588 5588 5593 5596 5595 5602 5617 5634 5636 5648 5657 5675 5686 5700 5716 5726 5736 5740 5745 5753 5762 5767 5774 5777 5779 5783 5783 5780 5777 5774 5772 5764 5756 5748 5738 5734 5729 5726 5722 5715 5710
5508 5541 5556 5558 5567 5573 5581 5582 5593 5598 5616 5634 5633 5645 5670 5696 5702 5717 5727 5733 5741 5747 5752 5758 5761 5766 5772 5772 5778 5779 5776 5773 5772 5766 5758 5747 5741 5731 5725 5723 5720 5716 5711 5704
5495 5524 5532 5535 5546 5557 5558 5581 5593 5595 5598 5596 5627 5615 5661 5691 5707 5711 5719 5729 5740 5739 5747 5754 5756 5761 5770 5776 5776 5777 5774 5773 5767 5759 5753 5747 5741 5731 5727 5724 5716 5710 5705 5699
5502 5515 5517 5515 5532 5547 5558 5571 5577 5581 5583 5591 5608 5589 5684 5693 5695 5706 5721 5732 5736 5747 5747 5750 5754 5762 5772 5771 5770 5770 5768 5766 5761 5754 5750 5743 5735 5730 5724 5717 5708 5701 5695 5691
5501 5506 5509 5517 5530 5538 5557 5554 5561 5564 5563 5555 5602 5591 5668 5681 5702 5711 5719 5726 5733 5735 5742 5751 5761 5762 5763 5764 5766 5764 5759 5758 5755 5750 5745 5740 5733 5724 5717 5709 5696 5693 5687 5682
5500 5505 5516 5519 5515 5529 5534 5526 5521 5523 5526 5571 5603 5591 5672 5694 5697 5702 5711 5717 5727 5733 5742 5750 5754 5756 5758 5758 5758 5756 5753 5749 5745 5744 5737 5733 5725 5720 5713 5705 5695 5686 5680 5676
5486 5496 5505 5519 5516 5519 5521 5523 5515 5538 5544 5568 5596 5606 5662 5689 5705 5709 5711 5715 5724 5734 5743 5749 5752 5751 5753 5753 5753 5751 5746 5741 5739 5734 5727 5723 5718 5712 5705 5699 5691 5684 5678 5673
5478 5495 5502 5512 5521 5523 5522 5517 5550 5537 5552 5569 5587 5634 5662 5683 5701 5704 5703 5711 5719 5731 5739 5744 5744 5747 5748 5748 5745 5741 5736 5734 5729 5722 5720 5713 5708 5703 5697 5690 5684 5678 5673 5668
5482 5483 5508 5508 5511 5520 5523 5534 5520 5511 5542 5564 5595 5618 5636 5662 5675 5691 5698 5708 5718 5730 5733 5735 5740 5742 5741 5739 5736 5734 5731 5725 5719 5716 5714 5707 5702 5697 5690 5683 5676 5672 5668 5664
5478 5473 5503 5506 5509 5510 5517 5514 5524 5527 5537 5563 5584 5609 5643 5660 5669 5680 5686 5705 5716 5728 5728 5734 5736 5737 5735 5732 5729 5726 5724 5718 5712 5710 5706 5701 5694 5689 5683 5677 5671 5668 5663 5659
5472 5464 5468 5492 5507 5508 5510 5515 5517 5518 5542 5561 5563 5592 5644 5656 5665 5675 5687 5702 5708 5717 5725 5730 5732 5730 5727 5723 5721 5718 5715 5711 5707 5703 5699 5693 5688 5682 5676 5672 5668 5664 5660 5656
5469 5460 5458 5484 5496 5501 5501 5509 5512 5513 5518 5534 5554 5598 5636 5654 5659 5670 5680 5690 5699 5710 5716 5721 5725 5724 5720 5717 5714 5712 5708 5704 5700 5697 5693 5686 5681 5675 5670 5667 5664 5661 5657 5653
5463 5457 5458 5450 5481 5484 5483 5495 5500 5507 5504 5544 5569 5581 5617 5638 5639 5656 5677 5688 5697 5704 5710 5713 5718 5716 5714 5711 5708 5705 5700 5698 5694 5691 5686 5680 5675 5670 5666 5663 5660 5657 5653 5650
5450 5460 5457 5461 5471 5479 5482 5489 5498 5500 5518 5525 5556 5567 5601 5618 5629 5648 5667 5685 5691 5699 5704 5708 5707 5709 5707 5705 5702 5699 5695 5692 5689 5685 5680 5675 5670 5665 5661 5658 5656 5653 5650 5649
5453 5458 5462 5469 5479 5483 5483 5494 5497 5507 5519 5534 5546 5560 5599 5618 5632 5647 5667 5678 5688 5696 5703 5703 5703 5702 5704 5701 5698 5694 5690 5688 5686 5681 5675 5671 5665 5660 5657 5654 5652 5650 5649 5647
5448 5455 5451 5462 5483 5478 5476 5502 5507 5521 5530 5537 5540 5558 5601 5612 5631 5646 5664 5676 5690 5696 5701 5701 5700 5698 5700 5701 5697 5693 5688 5685 5682 5677 5672 5667 5661 5657 5654 5651 5649 5648 5645 5644
5459 5457 5451 5453 5464 5462 5515 5515 5517 5527 5533 5536 5546 5565 5597 5607 5626 5647 5661 5673 5691 5698 5701 5700 5699 5696 5691 5695 5694 5690 5686 5682 5678 5673 5669 5663 5660 5657 5652 5649 5646 5644 5642 5641
5466 5468 5458 5453 5465 5498 5512 5508 5503 5510 5529 5541 5549 5571 5589 5604 5619 5648 5666 5678 5689 5700 5701 5696 5700 5696 5689 5687 5690 5688 5682 5679 5675 5672 5668 5664 5660 5655 5651 5647 5642 5640 5639 5636
5468 5471 5465 5467 5467 5476 5497 5471 5490 5498 5522 5534 5545 5570 5583 5592 5615 5645 5667 5678 5688 5700 5701 5700 5696 5694 5689 5684 5685 5685 5680 5677 5673 5671 5669 5665 5659 5655 5651 5646 5641 5639 5637 5635
5478 5468 5468 5472 5473 5492 5487 5482 5487 5512 5522 5532 5546 5568 5579 5596 5625 5647 5663 5675 5687 5695 5698 5702 5698 5692 5689 5683 5684 5681 5678 5676 5675 5672 5670 5664 5659 5655 5651 5646 5641 5638 5635 5633
5475 5474 5485 5482 5483 5493 5468 5479 5502 5506 5508 5535 5554 5567 5585 5604 5629 5649 5662 5674 5684 5691 5697 5703 5698 5692 5687 5685 5684 5679 5679 5680 5675 5673 5668 5663 5659 5655 5649 5644 5639 5636 5634 5631
5475 5467 5472 5471 5481 5475 5464 5468 5481 5497 5514 5540 5556 5574 5590 5614 5634 5650 5660 5672 5683 5693 5699 5704 5701 5694 5688 5686 5686 5681 5683 5679 5675 5671 5665 5661 5658 5653 5649 5644 5638 5635 5633 5631
5478 5481 5479 5481 5482 5488 5484 5490 5495 5515 5529 5549 5565 5583 5601 5620 5635 5650 5661 5671 5677 5690 5695 5698 5699 5693 5689 5689 5688 5689 5683 5680 5676 5670 5664 5661 5659 5654 5650 5645 5640 5636 5633 5631
5475 5473 5482 5483 5487 5497 5499 5502 5510 5527 5545 5559 5577 5590 5605 5622 5640 5651 5663 5667 5677 5686 5690 5694 5703 5697 5693 5692 5691 5689 5685 5681 5676 5670 5665 5662 5660 5658 5652 5644 5639 5637 5634 5635
5478 5482 5485 5488 5487 5489 5498 5506 5518 5530 5544 5554 5569 5587 5602 5620 5637 5649 5657 5670 5686 5674 5687 5694 5697 5695 5691 5690 5692 5690 5687 5683 5677 5668 5665 5664 5661 5659 5656 5648 5640 5631 5635 5634